Pasco, WA

5:58 AM PDT on July 23, 2017 (GMT -0700)
Tri-Cities

Weather History for KPSC - January, 2014

Change the Weather History Date:

Friday, January 3, 2014

  Actual Average Record
Temperature  
Mean Temperature 39 °F 33 °F  
Max Temperature 52 °F 40 °F 62 °F (1989)
Min Temperature 25 °F 26 °F 8 °F (2011)
Degree Days  
Heating Degree Days 26 32  
Month to date heating degree days 93 96  
Since 1 July heating degree days 2595 2312  
Cooling Degree Days 0 0  
Month to date cooling degree days 0 0  
Year to date cooling degree days 0 0  
Moisture  
Dew Point 28 °F    
Average Humidity 60    
Maximum Humidity 89    
Minimum Humidity 30    
Precipitation  
Precipitation T in 0.05 in 0.32 in (1966)
Month to date precipitation T 0.15  
Year to date precipitation T 0.15  
Snow  
Snow 0.00 in - - ()
Snow Depth 0.00 in    
Sea Level Pressure  
Sea Level Pressure 30.10 in    
Wind  
Wind Speed 9 mph (West)    
Max Wind Speed 24 mph    
Max Gust Speed 31 mph    
Visibility 10 miles    
Events Rain    
T = Trace of Precipitation, MM = Missing Value Source: NWS Daily Summary

Daily Weather History Graph

Daily Weather History Graph

Search for Another Location

Airport or City:

Trip Planner

Search our weather history database for the weather conditions in past years. The results will help you decide how hot, cold, wet, or windy it might be!

Date:

Astronomy

Jan. 03, 2014 Rise Set
Actual Time 7:39 AM PST 4:23 PM PST
Civil Twilight 7:04 AM PST 4:57 PM PST
Nautical Twilight 6:26 AM PST 5:35 PM PST
Astronomical Twilight 5:50 AM PST 6:11 PM PST
Moon 8:58 AM PST (1/3) 7:50 PM PST (1/3)
Length of Visible Light 9h 52m
Length of Day
8h 43m
Waxing Crescent, 8% of the Moon is Illuminated
Jan 3
Waxing Crescent
Jan 7
First Quarter
Jan 15
Full
Jan 23
Last Quarter
Jan 30
New

Hourly Weather History & Observations

Time (PST) Temp. Windchill Dew Point Humidity Pressure Visibility Wind Dir Wind Speed Gust Speed Precip Events Conditions
12:53 AM 36.0 °F 31.1 °F 32.0 °F 86% 29.89 in 10.0 mi NNW 5.8 mph - N/A   Overcast
1:53 AM 34.0 °F 29.8 °F 33.1 °F 96% 29.93 in 10.0 mi SSW 4.6 mph - 0.00 in Rain Light Rain
2:53 AM 36.0 °F 26.7 °F 33.1 °F 89% 29.95 in 10.0 mi NNE 15.0 mph - 0.00 in   Clear
3:53 AM 36.0 °F 33.3 °F 32.0 °F 86% 29.97 in 10.0 mi NNE 3.5 mph - N/A   Clear
4:53 AM 36.0 °F 32.1 °F 32.0 °F 86% 30.01 in 10.0 mi West 4.6 mph - N/A   Clear
5:53 AM 37.9 °F 30.5 °F 34.0 °F 86% 30.03 in 10.0 mi SW 11.5 mph - N/A   Clear
6:53 AM 39.0 °F 31.4 °F 33.1 °F 79% 30.05 in 10.0 mi WSW 12.7 mph - N/A   Clear
7:53 AM 37.0 °F 32.4 °F 30.9 °F 79% 30.08 in 10.0 mi NNE 5.8 mph - N/A   Clear
8:53 AM 36.0 °F 30.3 °F 30.9 °F 82% 30.11 in 10.0 mi WSW 6.9 mph - N/A   Clear
9:53 AM 45.0 °F 40.6 °F 30.9 °F 58% 30.11 in 10.0 mi SW 8.1 mph - N/A   Clear
10:53 AM 50.0 °F - 24.1 °F 36% 30.10 in 10.0 mi WSW 13.8 mph - N/A   Clear
11:53 AM 52.0 °F - 21.0 °F 30% 30.07 in 10.0 mi West 11.5 mph - N/A   Clear
12:53 PM 51.1 °F - 28.0 °F 41% 30.07 in 10.0 mi SW 11.5 mph - N/A   Clear
1:53 PM 51.1 °F - 28.9 °F 43% 30.07 in 10.0 mi SSW 6.9 mph - N/A   Clear
2:53 PM 52.0 °F - 24.1 °F 34% 30.08 in 10.0 mi NW 3.5 mph - N/A   Clear
3:53 PM 45.0 °F 39.7 °F 26.1 °F 48% 30.10 in 10.0 mi NW 10.4 mph - N/A   Clear
4:53 PM 43.0 °F 34.2 °F 23.0 °F 45% 30.12 in 10.0 mi NW 20.7 mph - N/A   Mostly Cloudy
5:53 PM 41.0 °F 32.8 °F 23.0 °F 49% 30.16 in 10.0 mi WNW 16.1 mph - N/A   Mostly Cloudy
6:53 PM 37.0 °F 28.5 °F 24.1 °F 59% 30.17 in 10.0 mi NW 13.8 mph - N/A   Clear
7:53 PM 37.0 °F 28.5 °F 24.1 °F 59% 30.19 in 10.0 mi NNW 13.8 mph - N/A   Clear
8:53 PM 37.0 °F 31.0 °F 24.1 °F 59% 30.22 in 10.0 mi WSW 8.1 mph - N/A   Clear
9:53 PM 34.0 °F 31.0 °F 24.1 °F 67% 30.27 in 10.0 mi SSW 3.5 mph - N/A   Clear
10:53 PM 32.0 °F 25.6 °F 23.0 °F 69% 30.29 in 10.0 mi NNW 6.9 mph - N/A   Clear
11:53 PM 26.1 °F 19.4 °F 21.0 °F 81% 30.31 in 10.0 mi SW 5.8 mph - N/A   Clear